Retour au catalogue

CZ-6A DEB

ActifPO
NORAD 60795·DEBRIS·🇨🇳 China

Lancé Aug 6, 2024 depuis Taiyuan Satellite Launch Center

Loading…

Prochains Passages (prochaines 24 heures)

TLE

FraisSource: Space-Track

Époque: Sep 14, 2026, 11:48 UTC

1 60795U 24140FW  26257.49210387  .00000434  00000-0  20727-3 0  9996
2 60795  89.0046 265.8865 0065093 280.5886  78.7974 14.16478028106512

Suivez CZ-6A DEB en temps réel avec AllMySat

Download on the App Store